Tracking 19854 objects as of 23-Sep-2019
HD Live streaming from Space Station
objects crossing your sky now

MICROSAT-R DEB

Track MICROSAT-R DEB now!
10-day predictions


NORAD ID: 44220
Int'l Code: 2019-006CW
Perigee: 264.2 km
Apogee: 525.9 km
Inclination: 96.7 °
Period: 92.3 minutes
Semi major axis: 6766 km
RCS: Unknown
Launch date: January 24, 2019
Source: India (IND)
Launch site: SRIHARIKOTA (SRI)

Note: This is SATELLITE DEBRIS
aabbcc
Your satellite tracking list
Your tracking list is empty




NASA's NSSDC Master Catalog

Two Line Element Set (TLE):
1 44220U 19006CW  19266.49807218  .00214160  13809-4  10443-2 0  9994
2 44220  96.6921 162.1689 0193368  77.7384 284.5669 15.59915735 22493
Source of the keplerian elements: AFSPC